(503917) = 2002 RW71 = 2007 RH144

Discovered at Socorro on 2002-09-05 by LINEAR.

Orbit

Orbit type: Main Belt

Note: WebGL enabled browser required.

epoch2024-03-31.0
epoch JD2460400.5
perihelion date2022-07-06.10014
perihelion JD2459766.60014
argument of perihelion (°)44.46654
ascending node (°)339.06709
inclination (°)14.44409
eccentricity0.1552191
perihelion distance (AU)2.4206047
Tisserand w.r.t. Jupiter3.2
ΔV w.r.t. Earth (km/sec)10.7
semimajor axis (AU)2.8653639
mean anomaly (°)128.81155
mean daily motion (°/day)0.20320490
aphelion distance (AU)3.310
period (years)4.85
P-vector [x]0.90891526
P-vector [y]0.27786266
P-vector [z]0.31091058
Q-vector [x]-0.40734658
Q-vector [y]0.75103195
Q-vector [z]0.51963426
absolute magnitude16.3
phase slope0.15
uncertainty0
referenceMPEC 2024-E123
observations used173
oppositions9
arc length (days)7860
first opposition used2002
last opposition used2024
residual rms (arc-secs)0.79
perturbers coarse indicatorM-v
perturbers precise indicator003Ek
first observation date used2002-08-30.0
last observation date used2024-03-06.0
computer nameMPCLINUX
JD of orbit computation2458058.002093
perihelion JD uncertainty (days)1.9005E-03
argument of perihelion uncertainty (°)6.0599E-04
ascending node uncertainty (°)6.1304E-05
inclination uncertainty (°)2.4640E-05
eccentricity uncertainty 1.8830E-06
perihelion distance uncertainty (AU)5.1390E-06
Minimum Orbit Intersection Distances (in AU)
for orbit epoch: 2460400.5, reference: E2024-EA9
Mercury2.08967
Venus1.71893
Earth1.44315
Mars1.05976
Jupiter2.23156
Saturn6.18857
Uranus15.2209
Neptune27.3216

Observations

179 total observations over interval: 2002 08 30.27381 – 2024 03 06.96973
These data are available for download (format description).

Date (UT) J2000 RA J2000 Dec Magn Location Ref
2002 08 30.27381 22 54 37.58 -06 38 15.4 19.9 V 291 – LPL/Spacewatch II MPS 82978
2002 08 30.29703 22 54 36.14 -06 38 14.3 19.8 V 291 – LPL/Spacewatch II MPS 82978
2002 08 30.32045 22 54 34.69 -06 38 13.0 19.8 V 291 – LPL/Spacewatch II MPS 82978
2002 09 05.26934 22 48 34.91 -06 32 55.8 18.9   704 – Lincoln Laboratory ETS, New Mexico MPS 61681
2002 09 05.28335 22 48 34.03 -06 32 55.4 19.5   704 – Lincoln Laboratory ETS, New Mexico MPS 61681
2002 09 05.29736 22 48 33.17 -06 32 53.1 19.9   704 – Lincoln Laboratory ETS, New Mexico MPS 61681
2002 09 05.31141 22 48 32.27 -06 32 53.6 19.6   704 – Lincoln Laboratory ETS, New Mexico MPS 61681
2002 09 05.32537 22 48 31.45 -06 32 52.6 19.2   704 – Lincoln Laboratory ETS, New Mexico MPS 61681
2002 09 07.25996 22 46 34.09 -06 31 10.0 19.2   704 – Lincoln Laboratory ETS, New Mexico MPS 61681
2002 09 07.27406 22 46 33.21 -06 31 10.5 19.7   704 – Lincoln Laboratory ETS, New Mexico MPS 61681
2002 09 07.30208 22 46 31.39 -06 31 07.9 19.8   704 – Lincoln Laboratory ETS, New Mexico MPS 61681
2002 09 07.31610 22 46 30.58 -06 31 07.1 20.0   704 – Lincoln Laboratory ETS, New Mexico MPS 61681
2002 09 14.25880 22 39 38.83 -06 24 26.4 19.4   644 – Palomar Mountain/NEAT MPS 61681
2002 09 14.27996 22 39 37.57 -06 24 25.2 19.6   644 – Palomar Mountain/NEAT MPS 61681
2002 09 14.30090 22 39 36.32 -06 24 24.1 19.2   644 – Palomar Mountain/NEAT MPS 61681
2002 09 16.13484 22 37 52.49 -06 22 22.7 20.1   644 – Palomar Mountain/NEAT MPS 63476
2002 09 16.21235 22 37 48.10 -06 22 18.1 19.1   644 – Palomar Mountain/NEAT MPS 63476
2002 09 16.27990 22 37 44.14 -06 22 12.3 19.6   644 – Palomar Mountain/NEAT MPS 63476
2007 09 09.35546 23 55 33.55 +06 58 22.4   691 – Steward Observatory, Kitt Peak-Spacewatch MPS 216077
2007 09 09.37304 23 55 32.51 +06 58 24.2   691 – Steward Observatory, Kitt Peak-Spacewatch MPS 216077
2007 09 09.39062 23 55 31.49 +06 58 26.8   691 – Steward Observatory, Kitt Peak-Spacewatch MPS 216077
2007 09 12.29003 23 52 46.12 +07 03 37.7 19.3 R 699 – Lowell Observatory-LONEOS MPS 216077
2007 09 12.31289 23 52 44.82 +07 03 41.3   699 – Lowell Observatory-LONEOS MPS 216077
2007 09 12.33574 23 52 43.50 +07 03 41.8   699 – Lowell Observatory-LONEOS MPS 216077
2007 09 12.35857 23 52 42.17 +07 03 45.0   699 – Lowell Observatory-LONEOS MPS 216077
2007 09 14.24348 23 50 51.93 +07 06 31.1 19.6   704 – Lincoln Laboratory ETS, New Mexico MPS 216492
2007 09 14.25518 23 50 51.12 +07 06 33.0 19.9   704 – Lincoln Laboratory ETS, New Mexico MPS 216492
2007 09 14.26687 23 50 50.44 +07 06 33.2 19.6   704 – Lincoln Laboratory ETS, New Mexico MPS 216492
2007 09 14.27862 23 50 49.72 +07 06 34.5 19.5   704 – Lincoln Laboratory ETS, New Mexico MPS 216492
2007 09 14.29033 23 50 48.94 +07 06 35.6 19.3   704 – Lincoln Laboratory ETS, New Mexico MPS 216492
2007 09 14.30222 23 50 48.27 +07 06 37.3 19.2 R 699 – Lowell Observatory-LONEOS MPS 216077
2007 09 14.32505 23 50 46.86 +07 06 38.2   699 – Lowell Observatory-LONEOS MPS 216078
2007 09 14.34790 23 50 45.38 +07 06 40.8   699 – Lowell Observatory-LONEOS MPS 216078
2007 09 14.37075 23 50 43.91 +07 06 43.9   699 – Lowell Observatory-LONEOS MPS 216078
2007 09 17.26307 23 47 51.58 +07 10 07.9 19.9   704 – Lincoln Laboratory ETS, New Mexico MPS 216492
2007 09 17.27498 23 47 50.80 +07 10 07.6 19.6   704 – Lincoln Laboratory ETS, New Mexico MPS 216492
2007 09 17.28703 23 47 50.08 +07 10 09.5 20.1   704 – Lincoln Laboratory ETS, New Mexico MPS 216492
2012 09 26.523180 00 59 34.343 +21 35 29.19 19.6 r F51 – Pan-STARRS 1, Haleakala MPS 433312
2012 09 26.534216 00 59 33.680 +21 35 31.17 19.8 r F51 – Pan-STARRS 1, Haleakala MPS 433312
2012 10 05.516116 00 50 34.532 +21 50 34.29 19.3 i F51 – Pan-STARRS 1, Haleakala MPS 434092
2012 10 05.528080 00 50 33.766 +21 50 34.67 19.2 i F51 – Pan-STARRS 1, Haleakala MPS 434092
2012 10 13.31616 00 42 32.53 +21 49 46.3 19.5   704 – Lincoln Laboratory ETS, New Mexico MPS 434986
2012 10 13.32998 00 42 31.56 +21 49 46.5 19.8   704 – Lincoln Laboratory ETS, New Mexico MPS 434986
2012 10 13.35706 00 42 29.80 +21 49 44.8 20.1   704 – Lincoln Laboratory ETS, New Mexico MPS 434986
2012 10 13.37058 00 42 29.05 +21 49 43.4 19.6   704 – Lincoln Laboratory ETS, New Mexico MPS 434986
2012 10 14.23038 00 41 37.21 +21 48 56.0 19.5 V 703 – Catalina Sky Survey MPS 434986
2012 10 14.23998 00 41 36.52 +21 48 55.4 19.5 V 703 – Catalina Sky Survey MPS 434986
2012 10 14.24961 00 41 35.95 +21 48 55.2 19.9 V 703 – Catalina Sky Survey MPS 434986
2012 10 14.25927 00 41 35.34 +21 48 53.8 19.3 V 703 – Catalina Sky Survey MPS 434986
2012 10 19.25137 00 36 42.08 +21 41 47.1 19.8 V 703 – Catalina Sky Survey MPS 434986
2012 10 19.25580 00 36 41.90 +21 41 47.7 19.8 V 703 – Catalina Sky Survey MPS 434986
2012 10 19.26031 00 36 41.54 +21 41 47.3 19.9 V 703 – Catalina Sky Survey MPS 434986
2012 10 19.26488 00 36 41.36 +21 41 45.8 19.6 V 703 – Catalina Sky Survey MPS 434986
2012 11 01.415985 00 26 00.392 +21 09 17.11 19.5 i F51 – Pan-STARRS 1, Haleakala MPS 439445
2012 11 01.428114 00 25 59.902 +21 09 14.90 19.4 i F51 – Pan-STARRS 1, Haleakala MPS 439445
2014 01 24.38054 09 41 32.824 +23 22 28.27 20.5 w F51 – Pan-STARRS 1, Haleakala MPS 498439
2014 01 24.39370 09 41 32.057 +23 22 29.55 20.4 w F51 – Pan-STARRS 1, Haleakala MPS 498439
2014 02 10.26341 09 24 17.38 +23 39 01.0 20.4 V G96 – Mt. Lemmon Survey MPS 500958
2014 02 10.26909 09 24 17.06 +23 39 00.9 19.9 V G96 – Mt. Lemmon Survey MPS 500958
2014 02 10.27475 09 24 16.68 +23 39 00.8 20.1 V G96 – Mt. Lemmon Survey MPS 500958
2014 02 10.28044 09 24 16.32 +23 39 01.0 20.1 V G96 – Mt. Lemmon Survey MPS 500958
2014 03 06.40955 09 02 40.671 +23 10 58.74 20.8 w F51 – Pan-STARRS 1, Haleakala MPS 503999
2014 03 06.43570 09 02 39.574 +23 10 54.69 20.8 w F51 – Pan-STARRS 1, Haleakala MPS 503999
2017 08 04.56703 02 17 58.605 +24 00 37.06 20.9 w F51 – Pan-STARRS 1, Haleakala MPS 809303
2017 08 04.57933 02 17 59.279 +24 00 45.94 20.9 w F51 – Pan-STARRS 1, Haleakala MPS 809303
2017 08 04.59168 02 17 59.952 +24 00 54.93 21.0 w F51 – Pan-STARRS 1, Haleakala MPS 809303
2017 08 04.60408 02 18 00.622 +24 01 03.79 20.9 w F51 – Pan-STARRS 1, Haleakala MPS 809303
2017 09 30.34571 02 33 23.45 +33 40 43.3 20.2 V 703 – Catalina Sky Survey MPS 818981
2017 09 30.35073 02 33 23.25 +33 40 46.7 19.8 V 703 – Catalina Sky Survey MPS 818981
2017 09 30.36092 02 33 22.87 +33 40 50.2 20.5 V 703 – Catalina Sky Survey MPS 818981
2017 10 11.32150 02 25 22.68 +34 42 53.8 19.6 G G96 – Mt. Lemmon Survey MPS 823358
2017 10 11.32621 02 25 22.43 +34 42 55.3 19.6 G G96 – Mt. Lemmon Survey MPS 823358
2017 10 11.33092 02 25 22.17 +34 42 56.4 19.6 G G96 – Mt. Lemmon Survey MPS 823358
2017 10 11.33558 02 25 21.91 +34 42 57.7 19.5 G G96 – Mt. Lemmon Survey MPS 823358
2017 10 24.93984 02 11 40.84 +35 15 30.2 18.3 R C41 – MASTER-II Observatory, Kislovodsk MPS 831748
2017 10 24.94231 02 11 40.63 +35 15 30.4 17.6 R C41 – MASTER-II Observatory, Kislovodsk MPS 831748
2017 10 25.29880 02 11 18.19 +35 15 34.7 19.6 G 703 – Catalina Sky Survey MPS 828153
2017 10 25.30535 02 11 17.65 +35 15 36.0 20.1 G 703 – Catalina Sky Survey MPS 828153
2017 10 25.31182 02 11 17.29 +35 15 36.4 19.9 G 703 – Catalina Sky Survey MPS 828153
2017 10 25.31866 02 11 16.78 +35 15 35.5 20.1 G 703 – Catalina Sky Survey MPS 828153
2017 10 28.37214 02 07 56.399 +35 15 11.77 19.3 i F51 – Pan-STARRS 1, Haleakala MPS 831748
2017 10 28.38430 02 07 55.564 +35 15 11.41 19.4 i F51 – Pan-STARRS 1, Haleakala MPS 831748
2017 10 28.39650 02 07 54.728 +35 15 10.97 19.4 i F51 – Pan-STARRS 1, Haleakala MPS 831748
2017 10 29.26947 02 06 57.25 +35 14 33.4 19.6 G G96 – Mt. Lemmon Survey MPS 831748
2017 10 29.27542 02 06 56.85 +35 14 33.1 19.6 G G96 – Mt. Lemmon Survey MPS 831748
2017 10 29.28124 02 06 56.47 +35 14 32.7 19.6 G G96 – Mt. Lemmon Survey MPS 831748
2017 10 29.28695 02 06 56.06 +35 14 32.6 19.6 G G96 – Mt. Lemmon Survey MPS 831748
2017 10 30.24908 02 05 52.93 +35 13 36.8 19.9 G 703 – Catalina Sky Survey MPS 831748
2017 10 30.25477 02 05 52.56 +35 13 36.3 19.9 G 703 – Catalina Sky Survey MPS 831748
2017 10 30.26015 02 05 52.18 +35 13 37.4 19.7 G 703 – Catalina Sky Survey MPS 831748
